Regional Weather Roundup
Issued by NWS Charleston, SC

Current Version | Previous Version | Graphics & Text | Print | Product List | Glossary On
Versions: 1 2 3 4 5 6 7 8 9 10 11 12 13 14 15 16 17 18 19 20 21 22 23 24 25 26 27 28 29 30 31 32 33 34 35 36 37 38 39 40 41 42 43 44 45 46 47 48 49 50
000
ASUS42 KCHS 190311
RWRCHS

REGIONAL WEATHER ROUNDUP
NATIONAL WEATHER SERVICE CHARLESTON SC
1100 PM EDT SAT APR 18 2015

NOTE: "FAIR" INDICATES FEW OR NO CLOUDS BELOW 12,000 FEET WITH NO
SIGNIFICANT WEATHER AND/OR OBSTRUCTIONS TO VISIBILITY.

NOT ALL STATIONS ARE QUALITY CONTROLLED BY THE NATIONAL
WEATHER SERVICE. USE DATA WITH CAUTION...ESPECIALLY
DEWPOINT OBSERVATIONS.

SCZ027-030-031-034>040-042>050-190400-
...SOUTHEAST SOUTH CAROLINA...

CITY           SKY/WX    TMP DP  RH WIND       PRES   REMARKS
N CHARLESTON   MOCLDY    68  65  90 SE6       29.99S
WATERFRONT PRK   N/A     66 N/A N/A S3          N/A
MOUNT PLEASANT CLOUDY    66  66 100 CALM      30.00R
PINOPOLIS      NOT AVBL
MONCKS CORNER  MOCLDY    68  66  94 CALM      29.99S
SUMMERVILLE    CLOUDY    68  68 100 CALM      30.00S
BEAUFORT MCAS  MOCLDY    70  68  93 CALM      29.98S
BEAUFORT ARPT  MOCLDY    70  70 100 CALM      29.98S
HILTON HEAD IS CLOUDY    70  70 100 E3        29.99F
WALTERBORO     CLOUDY    64  64 100 SE5       30.00R
ALLENDALE      CLOUDY    70  70 100 SE6       29.98S

...SOUTHERN MIDLANDS AND PEE DEE...

CITY           SKY/WX    TMP DP  RH WIND       PRES   REMARKS
GEORGETOWN     NOT AVBL
KINGSTREE      NOT AVBL
ORANGEBURG     CLOUDY    68  66  93 SE5       29.99R
BARNWELL       CLOUDY    70  70 100 SE8       29.99R
AIKEN            N/A     52  52 100 CALM      30.02R FOG
MANNING        RAIN      66  59  77 CALM      29.99R
COLUMBIA       CLOUDY    70  66  87 CALM      29.98R
SUMTER         CLOUDY    69  67  92 SE7       29.97R
FLORENCE       CLOUDY    69  64  84 S5        29.99R
MYRTLE BEACH   NOT AVBL
N MYRTLE BEACH CLOUDY    65  64  97 CALM      29.98S

$$

GAZ063-065-086>088-099>101-113>116-118-119-134>141-150-190400-
...SOUTHEAST GEORGIA...

CITY           SKY/WX    TMP DP  RH WIND       PRES   REMARKS
SAVANNAH ARPT  CLOUDY    69  67  93 S5        29.98S
HUNTER AAF     CLOUDY    69  69 100 SE3       29.95F
FORT STEWART   CLOUDY    70  67  90 S5        29.95F
STATESBORO       N/A     71  71 100 CALM      29.98R
SYLVANIA       CLOUDY    70  69  96 SE3       29.99S
CLAXTON        FAIR      72  70  94 CALM      29.97S

...CSRA...CENTRAL AND FAR SOUTHEAST GEORGIA...

CITY           SKY/WX    TMP DP  RH WIND       PRES   REMARKS
THOMSON        CLOUDY    66  66 100 CALM      30.02R
AUGUSTA-BUSH   FOG       63  63 100 CALM      29.97R VSB 1/2
AUGUSTA-DANIEL FAIR      69  66  90 E6        29.98R
SWAINSBORO     NOT AVBL
VIDALIA        RAIN      72  70  94 CALM      29.97S
EASTMAN        CLOUDY    71  71 100 CALM      29.99R
HAZLEHURST     CLOUDY    73  73  98 CALM      29.96S
ALMA           CLOUDY    73  70  90 CALM      29.96S
WAYCROSS       CLOUDY    75  72  90 CALM      29.97S
JESUP          MOCLDY    73  72  94 CALM      29.98R
BAXLEY         CLOUDY    75  72  88 S3        29.96S
BRUNSWICK      CLOUDY    72  68  88 CALM      29.98S
SAINT SIMONS   CLOUDY    71  69  93 CALM      29.97F

$$

SCZ027-028-034-036>038-045-046-048>050-GAZ119-141-190400-
...LAKE AND SUPPLEMENTAL COASTAL OBSERVATIONS...

STATION/POSITION TIME  TEMP    WIND        PRES    WAVE   SWELL
                       AIR SEA DIR/SP/G            HT/PER HT/PER/DIR
                 (UTC) (F)     (DEG/KT/KT) (MB)    (FT/S) (FT/S/D)
UPR LAKE MARION  NOT AVBL
WINYAH BAY       NOT AVBL
LAKE MURRAY      0200   68        CALM     1014.2R
ACE BASIN NERRS  NOT AVBL
FORT PULASKI     0200   69 71  140/  2/  3 1015.9R
SAPELO ISLAND    0200   71     180/  8     1015.0S

$$

ANZ835-935-AMZ111-154-330-350-352-354-370-450-454-472-190400-
...C-MAN AND BUOY OBSERVATIONS...

STATION/POSITION TIME  TEMP    WIND        PRES    WAVE   SWELL
                       AIR SEA DIR/SP/G            HT/PER HT/PER/DIR
                 (UTC) (F)     (DEG/KT/KT) (MB)    (FT/S) (FT/S/D)
BUOY 41004       0250   73 75  150/  4/  4 1014.8R   3/ 8   3/ 8
BUOY 41008       0250   69 67  170/  4/  4 1015.1S   2/ 9   2/120/ 9
FOLLY BEACH CMAN 0200   67      70/  4/  4 1015.5R
CAPERS NEARSHORE NOT AVBL
FRIPP NEARSHORE  0200   69     110/  2/  4 1015.1R


STATION/POSITION TIME  TEMP    WIND        PRES    WAVE   SWELL
                       AIR SEA DIR/SP/G            HT/PER HT/PER/DIR
                 (UTC) (F)     (DEG/KT/KT) (MB)    (FT/S) (FT/S/D)
5E ST. MARYS GA  0221      71                N/A     2/ 9   2/ 80/11
FRYING PAN BUOY  0250   75 74  140/ 10/ 12 1015.4R   4/ 8   3/110/ 8
BUOY 41025       0250   69 76   20/  8/ 10 1015.5F   4/10   3/ 70/10
CAPE LOOKOUT NC  0200   68     360/  2/  2 1015.4R
BUOY 41002       0250   72 75  180/  4/  4 1015.3R   5/12   5/ 60/12
BUOY 41010       0220   77 79  120/  4/  6 1015.6R
ST AUGUSTINE FL  0300   72 71  100/  5/  5 1016.2R


$$



USA.gov is the U.S. government's official web portal to all federal, state and local government web resources and services.